{"data":{"norad_id":53557,"epoch":"2026-05-25T02:29:23.992224Z","epoch_age_seconds":72974,"freshness":"FRESH","line1":"1 53557U 22101AG  26145.10374991  .00008512  00000+0  55288-3 0  9999","line2":"2 53557  53.2136  81.0854 0001326  95.8640 264.2503 15.08796157208491","mean_motion":15.08796157,"eccentricity":0.0001326,"inclination_deg":53.2136,"raan_deg":81.0854,"arg_perigee_deg":95.864,"mean_anomaly_deg":264.2503,"bstar":0.00055288,"rev_number":20849,"period_min":95.440327927612,"perigee_km":538.96007401073,"apogee_km":540.79473143033,"semimajor_km":6918.0144027205,"source":"CELESTRAK","updated_at":"2026-05-25T13:38:17.445665Z"}}